| time (UTC) | temp F | wind direction | speed MPH | gust MPH | rain 1hr in | rain 24hr in | rain mn in | humidity % | barometer mb |
| 20260906040058 | 86 | 53 | 1.0 | 6.0 | 0.00 | 0.00 | 0.00 | 37 | 1003.7 |
| 20260906034557 | 87 | 53 | 0.0 | 3.0 | 0.00 | 0.00 | 0.00 | 37 | 1003.6 |
| 20260906033056 | 86 | 53 | 0.0 | 2.0 | 0.00 | 0.00 | 0.00 | 37 | 1003.5 |
| 20260906031602 | 86 | 53 | 0.0 | 1.0 | 0.00 | 0.00 | 0.00 | 37 | 1003.3 |
| 20260906030055 | 86 | 53 | 1.0 | 6.0 | 0.00 | 0.00 | 0.00 | 37 | 1003.0 |
| 20260906024555 | 86 | 53 | 0.0 | 6.0 | 0.00 | 0.00 | 0.00 | 37 | 1002.8 |
| 20260906023054 | 87 | 54 | 2.0 | 10.0 | 0.00 | 0.00 | 0.00 | 37 | 1002.8 |
| 20260906021556 | 87 | 54 | 2.0 | 9.0 | 0.00 | 0.00 | 0.00 | 37 | 1002.7 |
| 20260906014553 | 88 | 53 | 0.0 | 12.0 | 0.00 | 0.00 | 0.00 | 35 | 1002.4 |
| 20260906013053 | 89 | 47 | 4.0 | 12.0 | 0.00 | 0.00 | 0.00 | 33 | 1002.5 |
| 20260906011552 | 90 | 52 | 4.0 | 14.0 | 0.00 | 0.00 | 0.00 | 32 | 1002.2 |
| 20260906010051 | 94 | 246 | 2.0 | 7.0 | 0.00 | 0.00 | 0.00 | 28 | 1002.0 |
| 20260906004550 | 94 | 246 | 1.0 | 4.0 | 0.00 | 0.00 | 0.00 | 28 | 1001.8 |
| 20260906003050 | 94 | 246 | 1.0 | 4.0 | 0.00 | 0.00 | 0.00 | 28 | 1001.8 |
| 20260906001549 | 95 | 242 | 0.0 | 5.0 | 0.00 | 0.00 | 0.00 | 27 | 1001.9 |
| 20260906000049 | 94 | 241 | 0.0 | 5.0 | 0.00 | 0.00 | 0.00 | 28 | 1001.7 |
| 20260905234547 | 94 | 242 | 0.0 | 5.0 | 0.00 | 0.00 | 0.00 | 28 | 1001.8 |
| 20260905233049 | 95 | 244 | 4.0 | 10.0 | 0.00 | 0.00 | 0.00 | 27 | 1001.8 |
| 20260905231547 | 96 | 244 | 1.0 | 8.0 | 0.00 | 0.00 | 0.00 | 26 | 1001.7 |
| 20260905230051 | 95 | 244 | 2.0 | 7.0 | 0.00 | 0.00 | 0.00 | 27 | 1001.7 |
| 20260905224600 | 97 | 244 | 0.0 | 5.0 | 0.00 | 0.00 | 0.00 | 26 | 1002.0 |
| 20260905223040 | 97 | 244 | 0.0 | 3.0 | 0.00 | 0.00 | 0.00 | 26 | 1002.0 |
| 20260905221552 | 96 | 244 | 1.0 | 8.0 | 0.00 | 0.00 | 0.00 | 27 | 1002.3 |
| 20260905220040 | 94 | 242 | 1.0 | 7.0 | 0.00 | 0.00 | 0.00 | 28 | 1002.5 |
| 20260905214535 | 94 | 236 | 3.0 | 10.0 | 0.00 | 0.00 | 0.00 | 29 | 1002.6 |
| 20260905213030 | 95 | 215 | 3.0 | 8.0 | 0.00 | 0.00 | 0.00 | 29 | 1002.8 |
| 20260905211528 | 94 | 224 | 2.0 | 8.0 | 0.00 | 0.00 | 0.00 | 30 | 1003.0 |
| 20260905210027 | 94 | 232 | 4.0 | 10.0 | 0.00 | 0.00 | 0.00 | 30 | 1003.3 |
| 20260905204524 | 95 | 233 | 2.0 | 6.0 | 0.00 | 0.00 | 0.00 | 29 | 1003.5 |
| 20260905203023 | 96 | 237 | 1.0 | 7.0 | 0.00 | 0.00 | 0.00 | 30 | 1003.8 |
| 20260905201518 | 94 | 230 | 0.0 | 5.0 | 0.00 | 0.00 | 0.00 | 31 | 1004.0 |
| 20260905200015 | 93 | 238 | 2.0 | 8.0 | 0.00 | 0.00 | 0.00 | 31 | 1004.4 |
| 20260905194511 | 93 | 225 | 0.0 | 9.0 | 0.00 | 0.00 | 0.00 | 32 | 1004.6 |
| 20260905193009 | 92 | 230 | 0.0 | 5.0 | 0.00 | 0.00 | 0.00 | 32 | 1004.9 |
| 20260905191505 | 92 | 223 | 2.0 | 6.0 | 0.00 | 0.00 | 0.00 | 32 | 1005.2 |
| 20260905190002 | 91 | 233 | 0.0 | 6.0 | 0.00 | 0.00 | 0.00 | 34 | 1005.5 |
| 20260905184602 | 90 | 225 | 2.0 | 8.0 | 0.00 | 0.00 | 0.00 | 35 | 1005.7 |
| 20260905183059 | 89 | 232 | 3.0 | 8.0 | 0.00 | 0.00 | 0.00 | 37 | 1006.1 |
| 20260905181606 | 89 | 234 | 1.0 | 7.0 | 0.00 | 0.00 | 0.00 | 37 | 1006.3 |
| 20260905180050 | 88 | 231 | 2.0 | 8.0 | 0.00 | 0.00 | 0.00 | 39 | 1006.6 |
| 20260905174552 | 88 | 233 | 1.0 | 7.0 | 0.00 | 0.00 | 0.00 | 40 | 1006.7 |
| 20260905173045 | 86 | 232 | 3.0 | 7.0 | 0.00 | 0.00 | 0.00 | 41 | 1006.9 |
| 20260905171544 | 87 | 217 | 3.0 | 9.0 | 0.00 | 0.00 | 0.00 | 41 | 1007.1 |
| 20260905170037 | 86 | 236 | 3.0 | 8.0 | 0.00 | 0.00 | 0.00 | 42 | 1007.0 |
| 20260905164537 | 85 | 234 | 0.0 | 10.0 | 0.00 | 0.00 | 0.00 | 44 | 1007.0 |
| 20260905163030 | 85 | 234 | 2.0 | 9.0 | 0.00 | 0.00 | 0.00 | 45 | 1007.1 |
| 20260905161527 | 82 | 221 | 4.0 | 8.0 | 0.00 | 0.00 | 0.00 | 49 | 1007.0 |
| 20260905160037 | 81 | 221 | 2.0 | 8.0 | 0.00 | 0.00 | 0.00 | 49 | 1007.1 |
| 20260905154519 | 81 | 217 | 2.0 | 6.0 | 0.00 | 0.00 | 0.00 | 51 | 1007.1 |
| 20260905153021 | 79 | 221 | 2.0 | 8.0 | 0.00 | 0.00 | 0.00 | 52 | 1007.1 |
| 20260905151515 | 78 | 222 | 2.0 | 10.0 | 0.00 | 0.00 | 0.00 | 54 | 1007.3 |
| 20260905150013 | 77 | 194 | 4.0 | 9.0 | 0.00 | 0.00 | 0.00 | 56 | 1007.3 |
| 20260905144510 | 76 | 200 | 4.0 | 9.0 | 0.00 | 0.00 | 0.00 | 57 | 1007.3 |
| 20260905143009 | 76 | 200 | 5.0 | 8.0 | 0.00 | 0.00 | 0.00 | 59 | 1007.4 |
| 20260905141507 | 75 | 200 | 2.0 | 7.0 | 0.00 | 0.00 | 0.00 | 60 | 1007.1 |
| 20260905140006 | 75 | 200 | 4.0 | 9.0 | 0.00 | 0.00 | 0.00 | 61 | 1007.2 |
| 20260905134504 | 74 | 200 | 5.0 | 11.0 | 0.00 | 0.00 | 0.00 | 61 | 1007.1 |
| 20260905133100 | 73 | 200 | 4.0 | 10.0 | 0.00 | 0.00 | 0.00 | 62 | 1006.9 |
| 20260905131603 | 73 | 195 | 4.0 | 9.0 | 0.00 | 0.00 | 0.00 | 62 | 1006.8 |
| 20260905130054 | 73 | 198 | 5.0 | 9.0 | 0.00 | 0.00 | 0.00 | 62 | 1006.5 |
| 20260905124554 | 73 | 198 | 3.0 | 9.0 | 0.00 | 0.00 | 0.00 | 62 | 1006.4 |
| 20260905123048 | 73 | 199 | 4.0 | 9.0 | 0.00 | 0.00 | 0.00 | 61 | 1006.3 |
| 20260905121546 | 73 | 198 | 5.0 | 14.0 | 0.00 | 0.00 | 0.00 | 61 | 1006.2 |
| 20260905120057 | 73 | 207 | 3.0 | 8.0 | 0.00 | 0.00 | 0.00 | 61 | 1006.0 |
| 20260905114544 | 73 | 205 | 6.0 | 10.0 | 0.00 | 0.00 | 0.00 | 62 | 1006.1 |
| 20260905113042 | 73 | 209 | 4.0 | 10.0 | 0.00 | 0.00 | 0.00 | 62 | 1006.0 |
| 20260905111542 | 73 | 217 | 3.0 | 11.0 | 0.00 | 0.00 | 0.00 | 63 | 1005.9 |
| 20260905110040 | 74 | 225 | 4.0 | 11.0 | 0.00 | 0.00 | 0.00 | 63 | 1005.8 |
| 20260905104537 | 74 | 227 | 5.0 | 10.0 | 0.00 | 0.00 | 0.00 | 63 | 1005.9 |
| 20260905103043 | 74 | 236 | 5.0 | 11.0 | 0.00 | 0.00 | 0.00 | 63 | 1005.8 |
| 20260905101533 | 75 | 226 | 4.0 | 9.0 | 0.00 | 0.00 | 0.00 | 63 | 1005.6 |
| 20260905100029 | 75 | 232 | 3.0 | 10.0 | 0.00 | 0.00 | 0.00 | 62 | 1005.5 |
| 20260905094533 | 76 | 205 | 5.0 | 11.0 | 0.00 | 0.00 | 0.00 | 59 | 1005.5 |
| 20260905093021 | 77 | 205 | 4.0 | 11.0 | 0.00 | 0.00 | 0.00 | 56 | 1005.2 |
| 20260905091550 | 78 | 215 | 2.0 | 10.0 | 0.00 | 0.00 | 0.00 | 55 | 1005.0 |
| 20260905090017 | 78 | 234 | 3.0 | 7.0 | 0.00 | 0.00 | 0.00 | 54 | 1005.0 |
| 20260905084515 | 78 | 227 | 3.0 | 8.0 | 0.00 | 0.00 | 0.00 | 54 | 1004.9 |
| 20260905083012 | 79 | 233 | 3.0 | 6.0 | 0.00 | 0.00 | 0.00 | 52 | 1004.8 |
| 20260905081510 | 80 | 237 | 3.0 | 9.0 | 0.00 | 0.00 | 0.00 | 50 | 1004.8 |
| 20260905080009 | 80 | 236 | 2.0 | 10.0 | 0.00 | 0.00 | 0.00 | 50 | 1004.8 |
| 20260905074511 | 80 | 237 | 2.0 | 10.0 | 0.00 | 0.00 | 0.00 | 49 | 1004.8 |
| 20260905073004 | 81 | 236 | 3.0 | 8.0 | 0.00 | 0.00 | 0.00 | 48 | 1004.9 |
| 20260905071503 | 81 | 234 | 2.0 | 9.0 | 0.00 | 0.00 | 0.00 | 47 | 1005.0 |
| 20260905070002 | 82 | 239 | 1.0 | 10.0 | 0.00 | 0.00 | 0.00 | 47 | 1005.0 |
| 20260905064559 | 82 | 237 | 3.0 | 7.0 | 0.00 | 0.03 | 0.00 | 46 | 1005.1 |
| 20260905063100 | 82 | 237 | 3.0 | 8.0 | 0.00 | 0.03 | 0.00 | 46 | 1004.8 |
| 20260905061620 | 82 | 237 | 1.0 | 4.0 | 0.00 | 0.03 | 0.00 | 46 | 1004.9 |
| 20260905060106 | 83 | 237 | 1.0 | 4.0 | 0.00 | 0.03 | 0.00 | 45 | 1004.8 |
| 20260905054554 | 83 | 237 | 0.0 | 2.0 | 0.00 | 0.03 | 0.03 | 45 | 1004.9 |
| 20260905053054 | 83 | 237 | 0.0 | 2.0 | 0.00 | 0.03 | 0.03 | 44 | 1005.0 |
| 20260905051554 | 84 | 237 | 1.0 | 5.0 | 0.00 | 0.03 | 0.03 | 43 | 1005.0 |
| 20260905050052 | 84 | 237 | 0.0 | 5.0 | 0.00 | 0.03 | 0.03 | 42 | 1005.0 |
| 20260905044551 | 85 | 237 | 0.0 | 4.0 | 0.00 | 0.03 | 0.03 | 41 | 1005.0 |
| 20260905043051 | 85 | 237 | 1.0 | 5.0 | 0.00 | 0.03 | 0.03 | 40 | 1005.2 |
| 20260905041600 | 86 | 237 | 1.0 | 4.0 | 0.00 | 0.03 | 0.03 | 40 | 1005.1 |